MyTimes logo

TIMES

Webb Imagery

11/12/2003

YMCA at Boroondara Aquathon Series - Race #2

(1.5km run / 250m swim) x3

(Click on competitor name to view personalised results)

Name
Race #
Category
Team Name
Time
(h:mm:ss)
Avg Speed
km/hr
OAll
Place
Cat
Place
MC CARDEL Chloe#408Open Team0:25:58 12.1 11
BOLAND Gerard#413Open Team0:27:06 11.6 22
OAKLEY Adam#425Adult Male0:27:09 11.6 31
WALPOLE Stuart#407Junior Male0:29:05 10.8 41
MC ALLISTER Gary#405Adult Male0:30:38 10.3 52
STAEAHR Clinton#420Adult Male0:31:35 10 63
EWART Chris#430Adult Male0:32:09 9.8 74
COOK Stephen#423Adult Male0:32:23 9.7 85
VAN LINT Stefan#415Adult Male0:32:42 9.6 96
ROSE Gavin#419Adult Male0:34:06 9.2 107
REGAN Fabien#414Junior Team0:34:31 9.1 111
RITTER Andrew#406Adult Male0:34:59 9 128
SCOTT Barry#428Adult Male0:35:13 8.9 139
ALLAN James#409Adult Male0:35:20 8.9 1410
FORKEEN Michael#410Adult Male0:36:14 8.7 1511
BURMAN Caitlin#402Adult Female0:36:43 8.6 161
SATTERLEY Paul#418Adult Male0:37:50 8.3 1712
EWART Daimon#431Junior Team0:38:22 8.2 182
SKIPWORTH Johnathon#424Adult Male0:38:36 8.2 1913
O'HALLORAN Andrew#417Adult Male0:38:55 8.1 2014
TAYLOR Adam#421Adult Male0:38:59 8.1 2115
BAUGH Ceri#412Junior Female0:42:05 7.5 221
EWART Emily#429Junior Team0:43:04 7.3 233
GANNON John#426Adult Male0:45:30 6.9 2416
LEWES Jonathon#404Adult Male0:45:36 6.9 2517
DOBSON Genivieve#403Adult Female0:45:58 6.9 262
FROST Kerry#422Adult Female0:57:54 5.4 273